Voltar ao catálogo

STARLINK-30819

AtivoComunicaçõesVLEO
NORAD 58179·PAYLOAD·🇺🇸 United States

Lançado Oct 30, 2023 de Cape Canaveral Space Force Station

Loading…

Próximas Passagens (próximas 24 horas)

TLE

AtualizadoSource: CelesTrak SupGP

Época: Sep 15, 2026, 02:27 UTC

1 58179C 23167E   26258.10256944  .00035814  00000+0  12970-2 0  2582
2 58179  43.0029 153.7213 0001463 274.1820  67.1152 15.27564649    12

Acompanhe STARLINK-30819 em tempo real com AllMySat

Download on the App Store